This is the latest recevied weather packets stored in our database for station/object KI5MKI. If no packets are shown the sender has not sent any weather packets the latest 10 day(s).
| Time | Temp. | Humidity | Pressure | Rain* | Wind** | Luminosity | Snow |
|---|---|---|---|---|---|---|---|
| 1777734373 | 18.33° C | 60% | 1022.3 hPa | 0 mm | - | 573 W/m² | - |
| 1777734069 | 17.78° C | 58% | 1022.2 hPa | 0 mm | - | 561 W/m² | - |
| 1777733765 | 17.22° C | 62% | 1022.3 hPa | 0 mm | - | 542 W/m² | - |
| 1777733462 | 16.67° C | 63% | 1022.1 hPa | 0 mm | - | 524 W/m² | - |
| 1777733158 | 16.11° C | 63% | 1022.2 hPa | 0 mm | - | 474 W/m² | - |
| 1777732855 | 16.11° C | 63% | 1022.3 hPa | 0 mm | - | 96 W/m² | - |
| 1777732551 | 15.56° C | 64% | 1022.2 hPa | 0 mm | - | 147 W/m² | - |
| 1777732250 | 15.56° C | 64% | 1022.1 hPa | 0 mm | - | 75 W/m² | - |
| 1777731946 | 15° C | 68% | 1022.2 hPa | 0 mm | - | 150 W/m² | - |
| 1777731643 | 15° C | 64% | 1021.9 hPa | 0 mm | - | 261 W/m² | - |
| 1777731340 | 14.44° C | 66% | 1021.9 hPa | 0 mm | - | 71 W/m² | - |
| 1777731038 | 14.44° C | 68% | 1022 hPa | 0 mm | - | 112 W/m² | - |
| 1777730736 | 13.89° C | 68% | 1022.1 hPa | 0 mm | - | 69 W/m² | - |
| 1777730432 | 13.89° C | 69% | 1021.9 hPa | 0 mm | - | 123 W/m² | - |
| 1777730128 | 13.89° C | 68% | 1021.9 hPa | 0 mm | - | 67 W/m² | - |
| 1777729825 | 13.89° C | 71% | 1021.8 hPa | 0 mm | - | 86 W/m² | - |
| 1777729522 | 13.89° C | 71% | 1021.8 hPa | 0 mm | - | 63 W/m² | - |
| 1777729218 | 13.89° C | 72% | 1021.4 hPa | 0 mm | - | 63 W/m² | - |
| 1777728915 | 13.33° C | 69% | 1021.5 hPa | 0 mm | - | 60 W/m² | - |
| 1777728612 | 12.78° C | 72% | 1021.3 hPa | 0 mm | - | 59 W/m² | - |
| 1777728309 | 12.78° C | 74% | 1021.2 hPa | 0 mm | - | 57 W/m² | - |
| 1777728006 | 12.22° C | 74% | 1021.1 hPa | 0 mm | - | 56 W/m² | - |
| 1777727703 | 12.22° C | 75% | 1021 hPa | 0 mm | - | 54 W/m² | - |
| 1777727400 | 11.67° C | 75% | 1021.1 hPa | 0 mm | - | 52 W/m² | - |
| 1777727097 | 11.67° C | 76% | 1021 hPa | 0 mm | - | 50 W/m² | - |
* Rain latest hour (hover to see other rain measurements)
** Current wind speed in m/s (hover to see current wind gust speed)